Weather History for Walterboro, SC

Change the Weather History Date:

Sunday, March 3, 2013

  Actual Average Record
Temperature  
Mean Temperature 37 °F -  
Max Temperature 44 °F 69 °F 71 °F (2012)
Min Temperature 30 °F 40 °F 30 °F (2013)
Degree Days  
Heating Degree Days 28    
Moisture  
Dew Point 26 °F    
Average Humidity 64    
Maximum Humidity 93    
Minimum Humidity 43    
Precipitation  
Precipitation 0.00 in - - ()
Sea Level Pressure  
Sea Level Pressure 29.98 in    
Wind  
Wind Speed 5 mph (WNW)    
Max Wind Speed 10 mph    
Max Gust Speed -    
Visibility 10 miles    
Events      
Averages and records for this station are not official NWS values.
T = Trace of Precipitation, MM = Missing Value Source: NWS Daily Summary

Daily Weather History Graph

Daily Weather History Graph

Search for Another Location

Airport:

Trip Planner

Search our weather history database for the weather conditions in past years. The results will help you decide how hot, cold, wet, or windy it might be!

Date:

Astronomy

Mar. 03, 2013 Rise Set
Actual Time 6:47 AM EST 6:21 PM EST
Civil Twilight 6:23 AM EST 6:46 PM EST
Nautical Twilight 5:54 AM EST 7:14 PM EST
Astronomical Twilight 5:25 AM EST 7:43 PM EST
Moon No Moon Rise 10:22 AM EST (3/3)
Length of Visible Light 12h 23m
Length of Day
11h 33m
Waning Gibbous, 64% of the Moon is Illuminated
Mar 3
Waning Gibbous
Mar 4
Last Quarter
Mar 11
New
Mar 19
First Quarter
Mar 27
Full

Hourly Weather History & Observations

Time (EST) Temp. Windchill Dew Point Humidity Pressure Visibility Wind Dir Wind Speed Gust Speed Precip Events Conditions
12:35 AM 39.2 °F 33.6 °F 26.6 °F 61% 29.95 in 10.0 mi West 8.1 mph - N/A   Overcast
12:55 AM 39.2 °F 34.2 °F 26.6 °F 61% 29.95 in 10.0 mi West 6.9 mph - N/A   Overcast
1:35 AM 37.4 °F 32.1 °F 28.4 °F 70% 29.95 in 10.0 mi West 6.9 mph - N/A   Clear
2:15 AM 35.6 °F 30.7 °F 28.4 °F 75% 29.94 in 10.0 mi West 5.8 mph - N/A   Clear
2:35 AM 35.6 °F 31.7 °F 28.4 °F 75% 29.94 in 10.0 mi West 4.6 mph - N/A   Clear
2:55 AM 33.8 °F 29.6 °F 28.4 °F 81% 29.93 in 10.0 mi WNW 4.6 mph - N/A   Clear
3:15 AM 33.8 °F - 28.4 °F 81% 29.93 in 10.0 mi Calm Calm - N/A   Scattered Clouds
3:35 AM 33.8 °F - 28.4 °F 81% 29.93 in 10.0 mi Calm Calm - N/A   Mostly Cloudy
3:55 AM 33.8 °F 28.6 °F 28.4 °F 81% 29.94 in 10.0 mi WNW 5.8 mph - N/A   Overcast
4:15 AM 33.8 °F 30.8 °F 28.4 °F 81% 29.94 in 10.0 mi WNW 3.5 mph - N/A   Mostly Cloudy
4:35 AM 33.8 °F - 28.4 °F 81% 29.94 in 10.0 mi Calm Calm - N/A   Mostly Cloudy
5:15 AM 32.0 °F 27.5 °F 28.4 °F 87% 29.95 in 10.0 mi NW 4.6 mph - N/A   Clear
5:35 AM 30.2 °F 26.7 °F 28.4 °F 93% 29.95 in 10.0 mi NW 3.5 mph - N/A   Clear
5:55 AM 30.2 °F 25.4 °F 28.4 °F 93% 29.96 in 10.0 mi NW 4.6 mph - N/A   Clear
6:15 AM 30.2 °F 25.4 °F 28.4 °F 93% 29.96 in 10.0 mi WNW 4.6 mph - N/A   Clear
6:35 AM 30.2 °F 25.4 °F 28.4 °F 93% 29.97 in 10.0 mi NW 4.6 mph - N/A   Clear
6:55 AM 30.2 °F 26.7 °F 28.4 °F 93% 29.97 in 10.0 mi NNW 3.5 mph - N/A   Clear
7:15 AM 32.0 °F 27.5 °F 28.4 °F 87% 29.97 in 10.0 mi NNW 4.6 mph - N/A   Clear
7:55 AM 33.8 °F 29.6 °F 28.4 °F 81% 29.98 in 10.0 mi North 4.6 mph - N/A   Scattered Clouds
8:35 AM 37.4 °F 33.8 °F 26.6 °F 65% 30.00 in 10.0 mi NNW 4.6 mph - N/A   Mostly Cloudy
8:55 AM 37.4 °F 34.9 °F 23.0 °F 56% 30.00 in 10.0 mi North 3.5 mph - N/A   Overcast
9:15 AM 39.2 °F 37.0 °F 23.0 °F 52% 30.00 in 10.0 mi NNE 3.5 mph - N/A   Overcast
9:55 AM 41.0 °F 37.1 °F 23.0 °F 49% 30.00 in 10.0 mi NNE 5.8 mph - N/A   Overcast
10:15 AM 41.0 °F 37.1 °F 21.2 °F 45% 30.00 in 10.0 mi North 5.8 mph - N/A   Overcast
10:55 AM 41.0 °F - 23.0 °F 49% 30.00 in 10.0 mi Calm Calm - N/A   Overcast
11:35 AM 42.8 °F - 23.0 °F 46% 29.99 in 10.0 mi Calm Calm - N/A   Overcast
11:55 AM 42.8 °F 38.6 °F 23.0 °F 46% 29.98 in 10.0 mi West 6.9 mph - N/A   Overcast
12:15 PM 42.8 °F 39.3 °F 23.0 °F 46% 29.98 in 10.0 mi NW 5.8 mph - N/A   Overcast
12:35 PM 44.6 °F 42.2 °F 23.0 °F 43% 29.98 in 10.0 mi WNW 4.6 mph - N/A   Overcast
12:55 PM 44.6 °F 40.2 °F 23.0 °F 43% 29.97 in 10.0 mi WNW 8.1 mph - N/A   Overcast
1:15 PM 44.6 °F 40.2 °F 23.0 °F 43% 29.96 in 10.0 mi West 8.1 mph - N/A   Overcast
1:35 PM 44.6 °F 39.7 °F 23.0 °F 43% 29.96 in 10.0 mi WNW 9.2 mph - N/A   Overcast
1:55 PM 44.6 °F 40.2 °F 23.0 °F 43% 29.96 in 10.0 mi West 8.1 mph - N/A   Overcast
2:15 PM 44.6 °F 39.7 °F 24.8 °F 46% 29.95 in 10.0 mi WNW 9.2 mph - N/A   Overcast
2:55 PM 44.6 °F 40.2 °F 26.6 °F 49% 29.95 in 10.0 mi WNW 8.1 mph - N/A   Overcast
3:15 PM 42.8 °F 38.0 °F 26.6 °F 53% 29.95 in 10.0 mi West 8.1 mph - N/A   Overcast
3:55 PM 42.8 °F 37.5 °F 26.6 °F 53% 29.95 in 10.0 mi West 9.2 mph - N/A   Overcast
4:35 PM 42.8 °F 37.0 °F 23.0 °F 46% 29.95 in 10.0 mi NW 10.4 mph - N/A   Overcast
4:55 PM 42.8 °F 37.5 °F 23.0 °F 46% 29.95 in 10.0 mi WNW 9.2 mph - N/A   Mostly Cloudy
5:15 PM 44.6 °F 41.4 °F 23.0 °F 43% 29.96 in 10.0 mi NW 5.8 mph - N/A   Mostly Cloudy
5:35 PM 44.6 °F 42.2 °F 23.0 °F 43% 29.96 in 10.0 mi NW 4.6 mph - N/A   Scattered Clouds
5:55 PM 42.8 °F 41.1 °F 23.0 °F 46% 29.97 in 10.0 mi NW 3.5 mph - N/A   Clear
6:15 PM 41.0 °F - 26.6 °F 57% 29.98 in 10.0 mi Calm Calm - N/A   Clear
6:55 PM 35.6 °F 32.8 °F 28.4 °F 75% 29.99 in 10.0 mi WSW 3.5 mph - N/A   Clear
7:15 PM 35.6 °F - 28.4 °F 75% 30.00 in 10.0 mi Calm Calm - N/A   Clear
7:35 PM 35.6 °F 31.7 °F 28.4 °F 75% 30.01 in 10.0 mi SW 4.6 mph - N/A   Clear
7:55 PM 35.6 °F 31.7 °F 26.6 °F 70% 30.01 in 10.0 mi WSW 4.6 mph - N/A   Clear
8:15 PM 35.6 °F 31.7 °F 26.6 °F 70% 30.01 in 10.0 mi WSW 4.6 mph - N/A   Clear
8:35 PM 35.6 °F 31.7 °F 26.6 °F 70% 30.02 in 10.0 mi WSW 4.6 mph - N/A   Clear
8:55 PM 35.6 °F 30.7 °F 26.6 °F 70% 30.03 in 10.0 mi WSW 5.8 mph - N/A   Clear
9:15 PM 35.6 °F 29.9 °F 26.6 °F 70% 30.03 in 10.0 mi WSW 6.9 mph - N/A   Clear
9:35 PM 35.6 °F 29.2 °F 24.8 °F 65% 30.03 in 10.0 mi WSW 8.1 mph - N/A   Clear
9:55 PM 35.6 °F 28.6 °F 24.8 °F 65% 30.03 in 10.0 mi West 9.2 mph - N/A   Clear
10:15 PM 35.6 °F 29.2 °F 23.0 °F 60% 30.04 in 10.0 mi West 8.1 mph - N/A   Clear
10:55 PM 35.6 °F 29.9 °F 23.0 °F 60% 30.04 in 10.0 mi West 6.9 mph - N/A   Clear
11:15 PM 35.6 °F 28.6 °F 23.0 °F 60% 30.04 in 10.0 mi West 9.2 mph - N/A   Clear
11:35 PM 35.6 °F 28.6 °F 23.0 °F 60% 30.04 in 10.0 mi West 9.2 mph - N/A   Clear
11:55 PM 35.6 °F 29.2 °F 23.0 °F 60% 30.05 in 10.0 mi West 8.1 mph - N/A   Clear